Regional Weather Roundup
Issued by NWS Sterling, VA

Home | Current Version | Previous Version | Graphics & Text | Print | Product List | Glossary On
Versions: 1 2 3 4 5 6 7 8 9 10 11 12 13 14 15 16 17 18 19 20 21 22 23 24 25 26 27 28
000
ASUS41 KLWX 160610
RWRLWX

REGIONAL WEATHER ROUNDUP
NATIONAL WEATHER SERVICE BALTIMORE MD/WASHINGTON DC
100 AM EST MON JAN 16 2017

Note: "FAIR" indicates few or no clouds below 12,000 feet
with no significant weather and/or obstructions to visibility.
 TC=TEMPERATURE CELSIUS

 * =Non NWS site. Station does not report precipitation (e.g. rain,
    snow, etc.), thunder, or fog.

DCZ001-MDZ009-015-VAZ040>042-051-053>054-160700-
WASHINGTON METRO

CITY           SKY/WX    TMP DP  RH WIND       PRES   REMARKS
WASHINGTON NAT CLOUDY    41  27  57 CALM      30.44R
DULLES         CLOUDY    37  25  61 NW3       30.42R
ANDREWS AFB    CLOUDY    37  30  74 NE5       30.42R
FT BELVOIR     CLOUDY    39  26  60 CALM      30.44R
QUANTICO       CLOUDY    40  33  76 CALM      30.45R
COLLEGE PARK*  CLOUDY    36  27  69 CALM      30.44R
LEESBURG*      CLOUDY    37  27  65 MISG      30.43R
GAITHERSBURG*  CLOUDY    34  23  64 CALM      30.45S

$$

MDZ006>007-011-014-160700-
BALTIMORE METRO

CITY           SKY/WX    TMP DP  RH WIND       PRES   REMARKS
BWI AIRPORT    MOCLDY    34  22  61 NE6       30.43S
MD SCIENCE CTR   N/A     36  19  50 MISG      30.43S
ANNAPOLIS      CLOUDY    38  27  64 NE3       30.43S
FORT MEADE*    PTCLDY    32  28  86 CALM      30.45S

$$

MDZ012-015-019>023-160700-
MARYLAND EASTERN SHORE

CITY           SKY/WX    TMP DP  RH WIND       PRES   REMARKS
OCEAN CITY     CLOUDY    38  31  76 N6        30.43R
SALISBURY      CLOUDY    37  29  72 N5        30.42S
BAY BRIDGE AP* CLOUDY    36  25  64 MISG      30.43F
CAMBRIDGE*     CLOUDY    34  32  93 CALM      30.43R
EASTON*        CLOUDY    36  26  66 E3        30.47R

$$

MDZ017>025-160700-
SOUTHERN MARYLAND

CITY           SKY/WX    TMP DP  RH WIND       PRES   REMARKS
PATUXENT RIVER CLOUDY    39  32  76 CALM      30.43S
ST INIGOES     NOT AVBL
LEONARDTOWN*   CLOUDY    37  30  75 CALM      30.45R

$$

MDZ003>005-160700-
NORTH CENTRAL MARYLAND

CITY           SKY/WX    TMP DP  RH WIND       PRES   REMARKS
FREDERICK*     CLOUDY    32  27  80 N5        30.46R
HAGERSTOWN APT PTCLDY    30  21  69 CALM      30.40S
WESTMINSTER*     N/A     27  21  80 CALM      30.39F

$$

MDZ501>502-160700-
WESTERN MARYLAND

CITY           SKY/WX    TMP DP  RH WIND       PRES   REMARKS
OAKLAND*         N/A     32  32 100 SE8       30.27F FOG     WCI  25
CUMBERLAND*    CLOUDY    34  30  86 CALM      30.42F

$$

VAZ025>031-160700-
SHENANDOAH VALLEY

CITY           SKY/WX    TMP DP  RH WIND       PRES   REMARKS
WINCHESTER*    CLOUDY    36  25  64 CALM      30.39R
FRONT ROYAL*   NOT AVBL
LURAY*         CLOUDY    37  30  75 CALM      30.38S
NEW MARKET*    CLOUDY    37  27  67 CALM      30.38S
STAUNTON*      LGT RAIN  38  36  92 N3        30.37F
WAYNESBORO*    CLOUDY    38  37  97 E6        30.34F

$$

WVZ021-048>050-054>055-160700-
EASTERN WEST VIRGINIA PANHANDLE

CITY           SKY/WX    TMP DP  RH WIND       PRES   REMARKS
MARTINSBURG    CLOUDY    34  25  69 CALM      30.40S
PETERSBURG*    CLOUDY    40  35  83 CALM      30.37F

$$

VAZ036>039-050-160700-
CENTRAL FOOTHILLS

CITY           SKY/WX    TMP DP  RH WIND       PRES   REMARKS
CHARLOTTESVILL CLOUDY    43  41  93 CALM      30.39S FOG
CULPEPER*      CLOUDY    40  30  68 CALM      30.42S
ORANGE*          N/A     39  36  87 CALM      30.42S
GORDONSVILLE*  CLOUDY    40  39  97 CALM      30.40S
WARRENTON*     CLOUDY    40  28  62 CALM      30.41S

$$

VAZ055>057-160700-
NORTH AND CENTRAL PIEDMONT

CITY           SKY/WX    TMP DP  RH WIND       PRES   REMARKS
FREDERICKSBRG* CLOUDY    40  33  75 CALM      30.43R
STAFFORD*      CLOUDY    38  32  78 CALM      30.47R

$$

NCZ024-NYZ072-PAZ021-071-VAZ022-071-160700-
OTHER REGIONAL OBSERVATIONS

CITY           SKY/WX    TMP DP  RH WIND       PRES   REMARKS
NEW YORK CITY  CLEAR     31  19  61 NW3       30.44R
PHILADELPHIA   PTCLDY    31  19  61 N3        30.45S
PITTSBURGH     CLOUDY    26  22  84 CALM      30.34F
ROANOKE        LGT RAIN  42  41  96 SE6       30.37S
RICHMOND       LGT RAIN  40  37  89 S5        30.41S
RALEIGH        CLOUDY    47  38  71 E6        30.36S

$$

ANZ530>537-160700-
MARINE OBSERVATIONS

STATION/POSITION TIME  TEMP    WIND        PRES
                       AIR SEA DIR/SP/G
                 (UTC) (F)     (DEG/KT/KT) (MB)
THOMAS PT LIGHT  0600   37 38   40/  8/  8   N/A
BALT KEY BRIDGE  0542   34      20/  2/  3 1031.0F
COVE POINT       0542   38      30/  5/  6 1031.0S
LEWISETTA        0542   40 42   CALM  /  1 1030.0S
SOLOMONS ISLAND  0542   39 40   10/  1/  2   N/A
PINEY POINT      0548             CALM       N/A

$$





USA.gov is the U.S. government's official web portal to all federal, state and local government web resources and services.